AFR144 LEVC-LFBD

Flight info

Callsign AFR144
Flight time 1h 1m
Altitude 34000
Route SOPET N608 MATEX DCT OSLAP DCT USKAR DCT MOPAS DCT GIROM DCT AGN DCT SECHE R17 MIRBA
Aircraft A21N/M-SDE2E3FGHIRWXY/LB1

Departure

Time 2026-05-05 01:40
Airport Valencia Airport (LEVC)

Arrival

Time 2026-05-05 02:41
Airport Bordeaux–Mérignac Airport (LFBD)
Time Latitude Longitude Altitude Speed Heading
2026-05-05 01:12 39.49047 -0.47387 215 ft 0 kts 22°
2026-05-05 01:29 39.49041 -0.47391 218 ft 4 kts 22°
2026-05-05 01:29 39.49016 -0.47404 214 ft 4 kts 32°
2026-05-05 01:29 39.48997 -0.47427 215 ft 4 kts 60°
2026-05-05 01:30 39.48992 -0.47456 218 ft 4 kts 108°
2026-05-05 01:30 39.48996 -0.47468 218 ft 1 kts 116°
2026-05-05 01:34 39.48992 -0.47459 219 ft 3 kts 116°
2026-05-05 01:34 39.48979 -0.47423 215 ft 6 kts 116°
2026-05-05 01:34 39.48957 -0.47365 218 ft 8 kts 116°
2026-05-05 01:35 39.48927 -0.47286 217 ft 11 kts 117°
2026-05-05 01:35 39.48858 -0.47226 217 ft 13 kts 156°
2026-05-05 01:35 39.48766 -0.47169 216 ft 16 kts 140°
2026-05-05 01:35 39.48707 -0.47040 223 ft 18 kts 117°
2026-05-05 01:36 39.48648 -0.46889 216 ft 20 kts 117°
2026-05-05 01:36 39.48618 -0.46820 214 ft 0 kts 122°
2026-05-05 01:37 39.48617 -0.46817 214 ft 2 kts 122°
2026-05-05 01:37 39.48604 -0.46792 214 ft 5 kts 123°
2026-05-05 01:38 39.48572 -0.46748 219 ft 9 kts 140°
2026-05-05 01:38 39.48512 -0.46697 215 ft 12 kts 160°
2026-05-05 01:38 39.48415 -0.46694 220 ft 13 kts 204°
2026-05-05 01:38 39.48395 -0.46756 223 ft 10 kts 296°
2026-05-05 01:39 39.48415 -0.46804 218 ft 0 kts 296°
2026-05-05 01:39 39.48512 -0.47061 217 ft 69 kts 297°
2026-05-05 01:39 39.48823 -0.47874 222 ft 130 kts 296°
2026-05-05 01:40 39.49297 -0.49116 275 ft 169 kts 296°
2026-05-05 01:40 39.49805 -0.50464 892 ft 165 kts 295°
2026-05-05 01:40 39.50287 -0.51806 1530 ft 165 kts 296°
2026-05-05 01:40 39.50859 -0.53142 2017 ft 176 kts 298°
2026-05-05 01:41 39.51459 -0.54616 2451 ft 195 kts 296°
2026-05-05 01:41 39.52103 -0.56251 3024 ft 215 kts 296°
2026-05-05 01:41 39.53141 -0.57824 3447 ft 250 kts 327°
2026-05-05 01:41 39.54858 -0.58443 4141 ft 267 kts
2026-05-05 01:42 39.56637 -0.57750 5104 ft 274 kts 32°
2026-05-05 01:42 39.57987 -0.56018 6141 ft 275 kts 50°
2026-05-05 01:42 39.59185 -0.54068 7144 ft 278 kts 49°
2026-05-05 01:42 39.60448 -0.52138 8107 ft 283 kts 49°
2026-05-05 01:43 39.61466 -0.49935 9034 ft 290 kts 69°
2026-05-05 01:43 39.62014 -0.47395 9954 ft 295 kts 76°
2026-05-05 01:43 39.62506 -0.44735 10565 ft 315 kts 77°
2026-05-05 01:43 39.63056 -0.41869 10954 ft 340 kts 77°
2026-05-05 01:44 39.63666 -0.38796 11306 ft 364 kts 77°
2026-05-05 01:44 39.64333 -0.35524 11642 ft 386 kts 77°
2026-05-05 01:44 39.65047 -0.32063 11961 ft 407 kts 77°
2026-05-05 01:44 39.65798 -0.28434 12244 ft 425 kts 77°
2026-05-05 01:45 39.66590 -0.24693 12722 ft 433 kts 75°
2026-05-05 01:45 39.67729 -0.21049 13303 ft 440 kts 61°
2026-05-05 01:45 39.69586 -0.17869 13889 ft 445 kts 45°
2026-05-05 01:45 39.71822 -0.15059 14432 ft 449 kts 43°
2026-05-05 01:46 39.74094 -0.12251 14990 ft 453 kts 43°
2026-05-05 01:46 39.76371 -0.09396 15540 ft 458 kts 43°
2026-05-05 01:46 39.78666 -0.06490 16050 ft 462 kts 43°
2026-05-05 01:46 39.80969 -0.03544 16506 ft 466 kts 43°
2026-05-05 01:47 39.83469 -0.00860 16934 ft 467 kts 30°
2026-05-05 01:47 39.86394 0.00922 17376 ft 464 kts 13°
2026-05-05 01:47 39.89504 0.02003 17939 ft 462 kts
2026-05-05 01:47 39.92622 0.03037 18400 ft 464 kts 10°
2026-05-05 01:48 39.95717 0.04117 18847 ft 468 kts 11°
2026-05-05 01:48 39.98901 0.05277 19280 ft 472 kts 11°
2026-05-05 01:48 40.02078 0.06456 19722 ft 475 kts 11°
2026-05-05 01:48 40.05265 0.07643 20158 ft 479 kts 11°
2026-05-05 01:49 40.08442 0.08828 20582 ft 483 kts 11°
2026-05-05 01:49 40.11681 0.10036 21036 ft 486 kts 11°
2026-05-05 01:49 40.14947 0.11258 21557 ft 490 kts 11°
2026-05-05 01:49 40.18239 0.12489 22046 ft 493 kts 11°
2026-05-05 01:50 40.21551 0.13728 22484 ft 497 kts 11°
2026-05-05 01:50 40.24893 0.14978 22927 ft 501 kts 11°
2026-05-05 01:50 40.28251 0.16234 23345 ft 505 kts 11°
2026-05-05 01:50 40.31637 0.17503 23767 ft 508 kts 11°
2026-05-05 01:51 40.35052 0.18784 24178 ft 511 kts 11°
2026-05-05 01:51 40.38480 0.20073 24550 ft 514 kts 11°
2026-05-05 01:51 40.41920 0.21370 24956 ft 516 kts 11°
2026-05-05 01:51 40.45375 0.22671 25430 ft 516 kts 11°
2026-05-05 01:52 40.48812 0.23965 25981 ft 514 kts 11°
2026-05-05 01:52 40.52244 0.25257 26470 ft 513 kts 11°
2026-05-05 01:52 40.55658 0.26628 26945 ft 515 kts 15°
2026-05-05 01:52 40.58907 0.28684 27419 ft 519 kts 24°
2026-05-05 01:53 40.62086 0.30929 27891 ft 518 kts 24°
2026-05-05 01:53 40.65266 0.33162 28327 ft 518 kts 24°
2026-05-05 01:53 40.68452 0.35375 28763 ft 517 kts 23°
2026-05-05 01:53 40.71633 0.37573 29194 ft 516 kts 23°
2026-05-05 01:54 40.74809 0.39770 29622 ft 516 kts 23°
2026-05-05 01:54 40.77976 0.41980 30059 ft 514 kts 23°
2026-05-05 01:54 40.81133 0.44181 30461 ft 513 kts 23°
2026-05-05 01:54 40.84261 0.46342 30833 ft 513 kts 22°
2026-05-05 01:55 40.87426 0.48528 31215 ft 513 kts 23°
2026-05-05 01:55 40.90571 0.50716 31626 ft 512 kts 23°
2026-05-05 01:55 40.93711 0.52923 32046 ft 510 kts 23°
2026-05-05 01:55 40.96843 0.55126 32411 ft 510 kts 22°
2026-05-05 01:56 40.99980 0.57299 32788 ft 508 kts 22°
2026-05-05 01:56 41.03107 0.59468 33149 ft 507 kts 22°
2026-05-05 01:56 41.06225 0.61644 33446 ft 507 kts 23°
2026-05-05 01:56 41.09346 0.63833 33757 ft 507 kts 23°
2026-05-05 01:57 41.12474 0.65999 33962 ft 507 kts 21°
2026-05-05 01:57 41.15750 0.67647 33986 ft 503 kts 11°
2026-05-05 01:57 41.22536 0.70240 33974 ft 511 kts 10°
2026-05-05 01:58 41.29378 0.72894 33968 ft 503 kts 11°
2026-05-05 01:58 41.36119 0.75539 33960 ft 509 kts 11°
2026-05-05 01:59 41.42844 0.78175 33958 ft 501 kts 11°
2026-05-05 01:59 41.49528 0.80800 33955 ft 500 kts 11°
2026-05-05 02:00 41.56227 0.83448 33985 ft 506 kts 11°
2026-05-05 02:00 41.63027 0.86136 34049 ft 512 kts 11°
2026-05-05 02:01 41.69877 0.88863 34277 ft 512 kts 11°
2026-05-05 02:01 41.73267 0.90200 34670 ft 505 kts 11°
2026-05-05 02:01 41.76625 0.91528 35058 ft 501 kts 12°
2026-05-05 02:02 41.83325 0.94193 35361 ft 502 kts 12°
2026-05-05 02:02 41.90024 0.96862 35755 ft 497 kts 12°
2026-05-05 02:03 41.93305 0.98172 35959 ft 487 kts 11°
2026-05-05 02:03 41.96495 0.99439 35994 ft 483 kts 11°
2026-05-05 02:03 42.02929 1.02013 35973 ft 482 kts 13°
2026-05-05 02:04 42.09367 1.04598 35972 ft 487 kts 12°
2026-05-05 02:04 42.15968 1.06893 35966 ft 487 kts
2026-05-05 02:05 42.19313 1.06774 35972 ft 478 kts 347°
2026-05-05 02:05 42.22595 1.06096 35974 ft 477 kts 346°
2026-05-05 02:05 42.29204 1.04979 35973 ft 480 kts 349°
2026-05-05 02:06 42.35865 1.04235 35968 ft 480 kts 351°
2026-05-05 02:06 42.42531 1.03528 35970 ft 481 kts 351°
2026-05-05 02:07 42.49198 1.02813 35969 ft 481 kts 351°
2026-05-05 02:07 42.55869 1.02087 35968 ft 482 kts 351°
2026-05-05 02:08 42.62553 1.01361 35972 ft 481 kts 351°
2026-05-05 02:08 42.69227 1.00629 35975 ft 482 kts 351°
2026-05-05 02:09 42.75912 0.99896 35967 ft 482 kts 351°
2026-05-05 02:09 42.82619 0.99155 35976 ft 485 kts 351°
2026-05-05 02:10 42.89288 0.98425 35971 ft 484 kts 351°
2026-05-05 02:10 42.96043 0.97671 35970 ft 484 kts 351°
2026-05-05 02:11 43.02752 0.96922 35969 ft 484 kts 351°
2026-05-05 02:11 43.09427 0.96189 35970 ft 485 kts 351°
2026-05-05 02:12 43.19559 0.95074 35971 ft 485 kts 352°
2026-05-05 02:13 43.26239 0.94317 35971 ft 485 kts 352°
2026-05-05 02:13 43.32978 0.93570 35971 ft 486 kts 352°
2026-05-05 02:14 43.39718 0.92814 35970 ft 486 kts 352°
2026-05-05 02:14 43.46451 0.92078 35971 ft 485 kts 352°
2026-05-05 02:14 43.49802 0.91694 35832 ft 480 kts 352°
2026-05-05 02:15 43.53131 0.91315 35050 ft 480 kts 352°
2026-05-05 02:15 43.56467 0.90943 34273 ft 481 kts 352°
2026-05-05 02:15 43.59783 0.90575 33645 ft 477 kts 352°
2026-05-05 02:15 43.63083 0.90207 33085 ft 472 kts 352°
2026-05-05 02:16 43.66335 0.89839 32553 ft 467 kts 352°
2026-05-05 02:16 43.69552 0.89469 32024 ft 462 kts 352°
2026-05-05 02:16 43.72741 0.89110 31501 ft 457 kts 352°
2026-05-05 02:16 43.74834 0.88873 31144 ft 453 kts 352°
2026-05-05 02:17 43.77957 0.88520 30614 ft 449 kts 352°
2026-05-05 02:17 43.81050 0.88171 30110 ft 444 kts 352°
2026-05-05 02:17 43.84110 0.87824 29591 ft 438 kts 352°
2026-05-05 02:17 43.87133 0.87470 29069 ft 434 kts 351°
2026-05-05 02:18 43.90042 0.86633 28520 ft 423 kts 336°
2026-05-05 02:18 43.92713 0.84983 27993 ft 416 kts 330°
2026-05-05 02:18 43.95289 0.83218 27487 ft 412 kts 330°
2026-05-05 02:18 43.97860 0.81479 26973 ft 409 kts 330°
2026-05-05 02:19 44.00415 0.79794 26476 ft 405 kts 331°
2026-05-05 02:19 44.02950 0.78149 25954 ft 401 kts 332°
2026-05-05 02:19 44.05480 0.76514 25391 ft 400 kts 332°
2026-05-05 02:19 44.07997 0.74891 24884 ft 396 kts 333°
2026-05-05 02:20 44.10486 0.73287 24401 ft 393 kts 332°
2026-05-05 02:20 44.12948 0.71690 23924 ft 389 kts 332°
2026-05-05 02:20 44.15384 0.70106 23462 ft 385 kts 332°
2026-05-05 02:20 44.17797 0.68536 22992 ft 381 kts 332°
2026-05-05 02:21 44.20185 0.66988 22543 ft 377 kts 332°
2026-05-05 02:21 44.22550 0.65452 22091 ft 373 kts 332°
2026-05-05 02:21 44.24886 0.63930 21652 ft 369 kts 332°
2026-05-05 02:21 44.27177 0.62436 21216 ft 365 kts 332°
2026-05-05 02:22 44.29492 0.60920 20776 ft 361 kts 332°
2026-05-05 02:22 44.31757 0.59446 20341 ft 358 kts 332°
2026-05-05 02:22 44.34002 0.57983 19904 ft 354 kts 332°
2026-05-05 02:22 44.36227 0.56536 19466 ft 351 kts 332°
2026-05-05 02:23 44.38431 0.55094 19026 ft 348 kts 332°
2026-05-05 02:23 44.40615 0.53663 18586 ft 345 kts 332°
2026-05-05 02:23 44.42776 0.52245 18152 ft 342 kts 332°
2026-05-05 02:23 44.44925 0.50838 17711 ft 339 kts 332°
2026-05-05 02:24 44.47053 0.49437 17279 ft 336 kts 332°
2026-05-05 02:24 44.49164 0.48047 16854 ft 334 kts 332°
2026-05-05 02:24 44.51259 0.46667 16424 ft 331 kts 332°
2026-05-05 02:24 44.53334 0.45299 15995 ft 329 kts 332°
2026-05-05 02:25 44.55365 0.43959 15574 ft 326 kts 332°
2026-05-05 02:25 44.57409 0.42612 15159 ft 324 kts 332°
2026-05-05 02:25 44.59436 0.41271 14637 ft 320 kts 332°
2026-05-05 02:25 44.61437 0.39948 14212 ft 318 kts 333°
2026-05-05 02:26 44.63432 0.38628 13791 ft 315 kts 332°
2026-05-05 02:26 44.65408 0.37317 13384 ft 313 kts 333°
2026-05-05 02:26 44.67371 0.36017 12977 ft 310 kts 333°
2026-05-05 02:26 44.69317 0.34730 12570 ft 309 kts 333°
2026-05-05 02:27 44.71237 0.33407 12165 ft 305 kts 327°
2026-05-05 02:27 44.72786 0.31436 11708 ft 300 kts 303°
2026-05-05 02:27 44.73752 0.28859 11315 ft 297 kts 293°
2026-05-05 02:27 44.74570 0.26208 10919 ft 294 kts 292°
2026-05-05 02:28 44.75380 0.23585 10613 ft 289 kts 292°
2026-05-05 02:28 44.76184 0.21032 10253 ft 284 kts 293°
2026-05-05 02:28 44.76988 0.18504 9967 ft 282 kts 294°
2026-05-05 02:28 44.77794 0.15980 9916 ft 284 kts 293°
2026-05-05 02:29 44.78606 0.13450 9924 ft 283 kts 293°
2026-05-05 02:29 44.79412 0.10938 9729 ft 282 kts 293°
2026-05-05 02:29 44.80223 0.08385 9238 ft 286 kts 294°
2026-05-05 02:29 44.81033 0.05845 8914 ft 287 kts 293°
2026-05-05 02:30 44.81850 0.03305 8586 ft 284 kts 293°
2026-05-05 02:30 44.82658 0.00776 8204 ft 281 kts 293°
2026-05-05 02:30 44.83456 -0.01714 7723 ft 277 kts 294°
2026-05-05 02:30 44.84249 -0.04189 7128 ft 278 kts 294°
2026-05-05 02:31 44.85039 -0.06674 6616 ft 277 kts 294°
2026-05-05 02:31 44.85819 -0.09137 6059 ft 274 kts 294°
2026-05-05 02:31 44.86590 -0.11576 5788 ft 272 kts 294°
2026-05-05 02:31 44.87362 -0.14012 5871 ft 272 kts 294°
2026-05-05 02:32 44.88136 -0.16451 5939 ft 273 kts 294°
2026-05-05 02:32 44.88841 -0.18928 5980 ft 273 kts 285°
2026-05-05 02:32 44.89075 -0.21582 6038 ft 273 kts 273°
2026-05-05 02:32 44.89142 -0.24256 5991 ft 273 kts 272°
2026-05-05 02:33 44.89205 -0.26933 5971 ft 273 kts 272°
2026-05-05 02:33 44.89419 -0.29546 5722 ft 267 kts 287°
2026-05-05 02:33 44.90257 -0.31862 5250 ft 266 kts 304°
2026-05-05 02:33 44.91338 -0.33977 4651 ft 265 kts 306°
2026-05-05 02:34 44.92422 -0.36064 4068 ft 263 kts 306°
2026-05-05 02:34 44.93486 -0.38153 3737 ft 261 kts 305°
2026-05-05 02:34 44.94513 -0.40197 3736 ft 245 kts 305°
2026-05-05 02:34 44.95453 -0.42069 3802 ft 224 kts 305°
2026-05-05 02:35 44.96315 -0.43786 3779 ft 206 kts 305°
2026-05-05 02:35 44.97130 -0.45428 3752 ft 216 kts 304°
2026-05-05 02:35 44.97923 -0.47158 3671 ft 204 kts 295°
2026-05-05 02:35 44.98134 -0.49045 3527 ft 191 kts 259°
2026-05-05 02:36 44.97532 -0.50649 3299 ft 186 kts 231°
2026-05-05 02:36 44.96622 -0.51917 3043 ft 179 kts 225°
2026-05-05 02:36 44.95754 -0.53020 3003 ft 161 kts 226°
2026-05-05 02:36 44.94941 -0.54110 3042 ft 161 kts 227°
2026-05-05 02:37 44.94144 -0.55212 2977 ft 160 kts 229°
2026-05-05 02:37 44.93366 -0.56330 2815 ft 159 kts 229°
2026-05-05 02:37 44.92602 -0.57434 2604 ft 150 kts 229°
2026-05-05 02:37 44.91890 -0.58468 2404 ft 146 kts 228°
2026-05-05 02:38 44.91185 -0.59492 2214 ft 146 kts 228°
2026-05-05 02:38 44.90493 -0.60496 2031 ft 141 kts 228°
2026-05-05 02:38 44.89811 -0.61485 1838 ft 140 kts 227°
2026-05-05 02:38 44.89131 -0.62471 1659 ft 140 kts 227°
2026-05-05 02:39 44.88451 -0.63457 1468 ft 140 kts 227°
2026-05-05 02:39 44.87772 -0.64441 1286 ft 140 kts 226°
2026-05-05 02:39 44.87095 -0.65423 1100 ft 140 kts 226°
2026-05-05 02:39 44.86418 -0.66404 919 ft 139 kts 226°
2026-05-05 02:40 44.85751 -0.67390 731 ft 139 kts 227°
2026-05-05 02:40 44.85081 -0.68367 553 ft 139 kts 226°
2026-05-05 02:40 44.84407 -0.69337 346 ft 138 kts 226°
2026-05-05 02:40 44.83732 -0.70300 203 ft 135 kts 226°
2026-05-05 02:41 44.83124 -0.71170 167 ft 112 kts 225°
2026-05-05 02:41 44.82708 -0.71759 171 ft 66 kts 226°
2026-05-05 02:41 44.82580 -0.71930 169 ft 11 kts 199°
2026-05-05 02:41 44.82515 -0.71872 167 ft 13 kts 128°
2026-05-05 02:42 44.82456 -0.71767 167 ft 13 kts 126°
2026-05-05 02:42 44.82458 -0.71671 170 ft 5 kts 50°
2026-05-05 02:42 44.82486 -0.71623 170 ft 8 kts 49°
2026-05-05 02:42 44.82518 -0.71578 171 ft 7 kts 45°
2026-05-05 02:43 44.82557 -0.71522 170 ft 9 kts 45°
2026-05-05 02:43 44.82606 -0.71453 169 ft 11 kts 45°
2026-05-05 02:43 44.82666 -0.71365 168 ft 13 kts 45°
2026-05-05 02:43 44.82737 -0.71265 165 ft 15 kts 44°
2026-05-05 02:44 44.82817 -0.71155 164 ft 17 kts 45°
2026-05-05 02:44 44.82907 -0.71029 166 ft 19 kts 46°
2026-05-05 02:44 44.83000 -0.70891 168 ft 20 kts 45°
2026-05-05 02:44 44.83103 -0.70749 168 ft 21 kts 43°
2026-05-05 02:45 44.83197 -0.70611 168 ft 4 kts 47°
2026-05-05 02:45 44.83205 -0.70578 168 ft 4 kts 93°
2026-05-05 02:45 44.83200 -0.70551 168 ft 0 kts 111°
2026-05-05 02:46 44.83199 -0.70549 168 ft 1 kts 111°
2026-05-05 02:46 44.83195 -0.70533 168 ft 2 kts 111°
2026-05-05 02:46 44.83194 -0.70503 168 ft 4 kts 75°
2026-05-05 02:46 44.83212 -0.70466 168 ft 5 kts 51°
2026-05-05 02:47 44.83218 -0.70452 168 ft 2 kts 74°
2026-05-05 02:47 44.83204 -0.70439 168 ft 3 kts 179°
2026-05-05 02:47 44.83175 -0.70438 168 ft 5 kts 175°
2026-05-05 02:47 44.83146 -0.70435 168 ft 0 kts 173°
2026-05-05 02:48 44.83145 -0.70434 168 ft 0 kts 173°
2026-05-05 02:50 44.83255 -0.70303 168 ft 0 kts 179°